| time (UTC) | temp C | wind direction | speed KPH | gust KPH | rain 1hr cm | rain 24hr cm | rain mn cm | humidity % | barometer mb |
| 20260509091432 | 2 | 263 | 0.0 | 0.0 | 0.00 | 0.00 | 0.00 | 97 | 1006.2 |
| 20260509090930 | 2 | 262 | 0.0 | 0.0 | 0.00 | 0.00 | 0.00 | 97 | 1006.1 |
| 20260509090427 | 2 | 264 | 0.0 | 0.0 | 0.00 | 0.00 | 0.00 | 98 | 1006.1 |
| 20260509085925 | 2 | 264 | 0.0 | 0.0 | 0.00 | 0.00 | 0.00 | 98 | 1006.2 |
| 20260509085421 | 2 | 264 | 0.0 | 0.0 | 0.00 | 0.00 | 0.00 | 98 | 1006.2 |
| 20260509084917 | 2 | 263 | 0.0 | 0.0 | 0.00 | 0.00 | 0.00 | 98 | 1006.3 |
| 20260509084414 | 2 | 263 | 0.0 | 0.0 | 0.00 | 0.00 | 0.00 | 98 | 1006.4 |
| 20260509083912 | 2 | 263 | 0.0 | 0.0 | 0.00 | 0.00 | 0.00 | 98 | 1006.2 |
| 20260509083409 | 2 | 263 | 0.0 | 0.0 | 0.00 | 0.00 | 0.00 | 98 | 1006.4 |
| 20260509082905 | 2 | 265 | 0.0 | 0.0 | 0.00 | 0.00 | 0.00 | 98 | 1006.2 |
| 20260509082403 | 2 | 265 | 0.0 | 0.0 | 0.00 | 0.00 | 0.00 | 98 | 1006.4 |
| 20260509081859 | 2 | 265 | 0.0 | 0.0 | 0.00 | 0.00 | 0.00 | 98 | 1006.6 |
| 20260509081357 | 2 | 265 | 0.0 | 0.0 | 0.00 | 0.00 | 0.00 | 99 | 1006.7 |
| 20260509080854 | 1 | 263 | 0.0 | 0.0 | 0.00 | 0.00 | 0.00 | 99 | 1006.9 |
| 20260509080352 | 1 | 262 | 0.0 | 0.0 | 0.00 | 0.00 | 0.00 | 99 | 1006.9 |
| 20260509075851 | 1 | 265 | 0.0 | 0.0 | 0.00 | 0.00 | 0.00 | 99 | 1006.9 |
| 20260509075347 | 1 | 264 | 0.0 | 0.0 | 0.00 | 0.00 | 0.00 | 99 | 1006.6 |
| 20260509074844 | 1 | 264 | 0.0 | 0.0 | 0.00 | 0.00 | 0.00 | 99 | 1006.7 |
| 20260509074342 | 1 | 265 | 0.0 | 0.0 | 0.00 | 0.00 | 0.00 | 99 | 1006.9 |
| 20260509073838 | 1 | 263 | 0.0 | 0.0 | 0.00 | 0.00 | 0.00 | 99 | 1006.4 |
| 20260509073334 | 1 | 263 | 0.0 | 0.0 | 0.00 | 0.00 | 0.00 | 99 | 1006.6 |
| 20260509072831 | 1 | 256 | 0.0 | 0.0 | 0.00 | 0.00 | 0.00 | 99 | 1006.9 |
| 20260509072327 | 1 | 263 | 0.0 | 0.0 | 0.00 | 0.00 | 0.00 | 99 | 1007.1 |
| 20260509071824 | 0 | 266 | 0.0 | 0.0 | 0.00 | 0.00 | 0.00 | 98 | 1007.2 |
| 20260509071321 | 0 | 263 | 0.0 | 0.0 | 0.00 | 0.00 | 0.00 | 98 | 1007.2 |
| 20260509070819 | 0 | 263 | 0.0 | 0.0 | 0.00 | 0.00 | 0.00 | 98 | 1007.1 |
| 20260509070315 | 0 | 264 | 0.0 | 0.0 | 0.00 | 0.00 | 0.00 | 98 | 1007.3 |
| 20260509065811 | 0 | 264 | 0.0 | 0.0 | 0.00 | 0.00 | 0.00 | 98 | 1007.3 |
| 20260509065308 | 0 | 263 | 0.0 | 0.0 | 0.00 | 0.00 | 0.00 | 98 | 1007.1 |
| 20260509064804 | 0 | 262 | 0.0 | 0.0 | 0.00 | 0.00 | 0.00 | 98 | 1007.3 |
| 20260509064302 | 0 | 263 | 0.0 | 0.0 | 0.00 | 0.00 | 0.00 | 98 | 1007.2 |
| 20260509063759 | 0 | 268 | 0.0 | 0.0 | 0.00 | 0.00 | 0.00 | 97 | 1007.4 |
| 20260509063255 | 0 | 263 | 0.0 | 0.0 | 0.00 | 0.00 | 0.00 | 97 | 1007.6 |
| 20260509062752 | 0 | 263 | 0.0 | 0.0 | 0.00 | 0.00 | 0.00 | 97 | 1007.7 |
| 20260509062249 | 0 | 264 | 0.0 | 0.0 | 0.00 | 0.00 | 0.00 | 97 | 1007.8 |
| 20260509061746 | 0 | 264 | 0.0 | 0.0 | 0.00 | 0.00 | 0.00 | 97 | 1007.7 |
| 20260509061244 | 0 | 265 | 0.0 | 0.0 | 0.00 | 0.00 | 0.00 | 97 | 1007.8 |
| 20260509060741 | 0 | 262 | 0.0 | 0.0 | 0.00 | 0.00 | 0.00 | 97 | 1008.0 |
| 20260509060237 | 1 | 265 | 0.0 | 0.0 | 0.00 | 0.00 | 0.00 | 96 | 1008.0 |
| 20260509055733 | 1 | 263 | 0.0 | 0.0 | 0.00 | 0.00 | 0.00 | 96 | 1007.9 |
| 20260509055229 | 1 | 262 | 0.0 | 0.0 | 0.00 | 0.00 | 0.00 | 96 | 1008.0 |
| 20260509054726 | 1 | 263 | 0.0 | 0.0 | 0.00 | 0.00 | 0.00 | 96 | 1008.0 |
| 20260509054223 | 1 | 263 | 0.0 | 0.0 | 0.00 | 0.00 | 0.00 | 96 | 1008.1 |
| 20260509053722 | 1 | 262 | 0.0 | 0.0 | 0.00 | 0.00 | 0.00 | 96 | 1008.1 |
| 20260509053218 | 1 | 262 | 0.0 | 0.0 | 0.00 | 0.00 | 0.00 | 96 | 1008.2 |
| 20260509052716 | 1 | 260 | 0.0 | 0.0 | 0.00 | 0.00 | 0.00 | 96 | 1008.4 |
| 20260509052213 | 1 | 264 | 0.0 | 0.0 | 0.00 | 0.00 | 0.00 | 96 | 1008.3 |
| 20260509051711 | 1 | 262 | 0.0 | 0.0 | 0.00 | 0.00 | 0.00 | 96 | 1008.5 |
| 20260509051209 | 1 | 263 | 0.0 | 0.0 | 0.00 | 0.00 | 0.00 | 96 | 1008.4 |
| 20260509050706 | 1 | 258 | 0.0 | 0.0 | 0.00 | 0.00 | 0.00 | 96 | 1008.6 |
| 20260509050202 | 1 | 263 | 0.0 | 0.0 | 0.00 | 0.00 | 0.00 | 96 | 1008.4 |
| 20260509045659 | 1 | 263 | 0.0 | 0.0 | 0.00 | 0.00 | 0.00 | 96 | 1008.6 |
| 20260509045156 | 1 | 265 | 0.0 | 0.0 | 0.00 | 0.00 | 0.00 | 96 | 1008.6 |
| 20260509044653 | 1 | 262 | 0.0 | 0.0 | 0.00 | 0.00 | 0.00 | 96 | 1008.7 |
| 20260509044150 | 1 | 264 | 0.0 | 0.0 | 0.00 | 0.00 | 0.00 | 96 | 1008.8 |
| 20260509043647 | 1 | 262 | 0.0 | 0.0 | 0.00 | 0.00 | 0.00 | 96 | 1008.6 |
| 20260509043143 | 1 | 265 | 0.0 | 0.0 | 0.00 | 0.00 | 0.00 | 96 | 1008.7 |
| 20260509042639 | 1 | 263 | 0.0 | 0.0 | 0.00 | 0.00 | 0.00 | 96 | 1008.8 |
| 20260509042135 | 1 | 263 | 0.0 | 0.0 | 0.00 | 0.00 | 0.00 | 96 | 1008.8 |
| 20260509041632 | 1 | 263 | 0.0 | 0.0 | 0.00 | 0.00 | 0.00 | 96 | 1009.0 |
| 20260509041130 | 1 | 263 | 0.0 | 0.0 | 0.00 | 0.00 | 0.00 | 96 | 1008.9 |
| 20260509040628 | 1 | 263 | 0.0 | 0.0 | 0.00 | 0.00 | 0.00 | 96 | 1008.8 |
| 20260509040125 | 1 | 263 | 0.0 | 0.0 | 0.00 | 0.00 | 0.00 | 96 | 1009.0 |
| 20260509035621 | 1 | 263 | 0.0 | 0.0 | 0.00 | 0.18 | 0.18 | 96 | 1008.7 |
| 20260509035118 | 1 | 262 | 0.0 | 0.0 | 0.00 | 0.18 | 0.18 | 95 | 1009.1 |
| 20260509034616 | 1 | 263 | 0.0 | 0.0 | 0.00 | 0.18 | 0.18 | 95 | 1008.9 |
| 20260509034113 | 1 | 263 | 0.0 | 0.0 | 0.00 | 0.18 | 0.18 | 95 | 1008.7 |
| 20260509033610 | 1 | 262 | 0.0 | 0.0 | 0.00 | 0.18 | 0.18 | 95 | 1009.0 |
| 20260509033107 | 1 | 263 | 0.0 | 0.0 | 0.00 | 0.18 | 0.18 | 95 | 1008.9 |
| 20260509032604 | 1 | 263 | 0.0 | 0.0 | 0.00 | 0.18 | 0.18 | 95 | 1009.0 |
| 20260509032101 | 1 | 263 | 0.0 | 0.0 | 0.00 | 0.18 | 0.18 | 95 | 1008.9 |
| 20260509031559 | 2 | 263 | 0.0 | 0.0 | 0.00 | 0.18 | 0.18 | 95 | 1009.0 |
| 20260509031055 | 2 | 263 | 0.0 | 0.0 | 0.00 | 0.18 | 0.18 | 94 | 1008.9 |
| 20260509030554 | 2 | 263 | 0.0 | 0.0 | 0.00 | 0.18 | 0.18 | 94 | 1008.9 |
| 20260509030050 | 2 | 263 | 0.0 | 0.0 | 0.00 | 0.18 | 0.18 | 93 | 1009.2 |
| 20260509025546 | 2 | 263 | 0.0 | 0.0 | 0.00 | 0.18 | 0.18 | 92 | 1009.1 |
| 20260509025042 | 2 | 264 | 0.0 | 0.0 | 0.00 | 0.18 | 0.18 | 92 | 1008.9 |
| 20260509024538 | 2 | 264 | 0.0 | 0.0 | 0.00 | 0.18 | 0.18 | 91 | 1008.8 |
| 20260509024034 | 2 | 264 | 0.0 | 0.0 | 0.00 | 0.18 | 0.18 | 90 | 1009.3 |
| 20260509023532 | 2 | 268 | 0.0 | 0.0 | 0.00 | 0.18 | 0.18 | 90 | 1009.1 |
| 20260509023029 | 2 | 263 | 0.0 | 0.0 | 0.00 | 0.18 | 0.18 | 89 | 1009.2 |
| 20260509022526 | 3 | 262 | 0.0 | 0.0 | 0.00 | 0.18 | 0.18 | 89 | 1008.9 |
| 20260509022024 | 3 | 261 | 0.0 | 0.0 | 0.00 | 0.18 | 0.18 | 88 | 1009.1 |
| 20260509021520 | 3 | 262 | 0.0 | 0.0 | 0.00 | 0.18 | 0.18 | 88 | 1009.0 |
| 20260509021017 | 3 | 262 | 0.0 | 0.0 | 0.00 | 0.18 | 0.18 | 88 | 1009.2 |
| 20260509020515 | 3 | 262 | 0.0 | 0.0 | 0.00 | 0.18 | 0.18 | 88 | 1009.4 |
| 20260509020012 | 3 | 263 | 0.0 | 0.0 | 0.00 | 0.18 | 0.18 | 87 | 1009.2 |
| 20260509015511 | 3 | 263 | 0.0 | 0.0 | 0.00 | 0.18 | 0.18 | 87 | 1009.2 |
| 20260509015008 | 3 | 262 | 0.0 | 0.0 | 0.00 | 0.18 | 0.18 | 87 | 1009.0 |
| 20260509014504 | 3 | 263 | 0.0 | 0.0 | 0.00 | 0.18 | 0.18 | 87 | 1009.2 |
| 20260509014001 | 4 | 262 | 0.0 | 0.0 | 0.00 | 0.18 | 0.18 | 87 | 1009.3 |
| 20260509013458 | 4 | 262 | 0.0 | 0.0 | 0.00 | 0.18 | 0.18 | 86 | 1009.3 |
| 20260509012953 | 5 | 264 | 0.0 | 0.0 | 0.00 | 0.18 | 0.18 | 86 | 1009.1 |
| 20260509012450 | 5 | 265 | 0.0 | 0.0 | 0.00 | 0.18 | 0.18 | 84 | 1009.1 |
| 20260509011947 | 5 | 260 | 0.0 | 0.0 | 0.00 | 0.18 | 0.18 | 83 | 1009.1 |
| 20260509011444 | 5 | 259 | 0.0 | 0.0 | 0.00 | 0.18 | 0.18 | 84 | 1008.9 |
| 20260509010942 | 5 | 270 | 0.0 | 1.6 | 0.00 | 0.18 | 0.18 | 84 | 1008.9 |
| 20260509010440 | 5 | 268 | 0.0 | 0.0 | 0.00 | 0.18 | 0.18 | 83 | 1009.1 |
| 20260509005936 | 6 | 271 | 0.0 | 1.6 | 0.00 | 0.18 | 0.18 | 80 | 1009.0 |
| 20260509005434 | 6 | 264 | 0.0 | 0.0 | 0.00 | 0.18 | 0.18 | 77 | 1008.6 |
| 20260509004928 | 6 | 247 | 0.0 | 0.0 | 0.00 | 0.18 | 0.18 | 76 | 1008.6 |
| 20260509004425 | 6 | 272 | 0.0 | 1.6 | 0.00 | 0.18 | 0.18 | 73 | 1008.7 |
| 20260509003923 | 7 | 254 | 0.0 | 0.0 | 0.00 | 0.18 | 0.18 | 74 | 1008.5 |
| 20260509003421 | 7 | 266 | 0.0 | 0.0 | 0.00 | 0.18 | 0.18 | 71 | 1008.3 |
| 20260509002917 | 8 | 251 | 0.0 | 0.0 | 0.00 | 0.18 | 0.18 | 70 | 1008.6 |
| 20260509002416 | 7 | 258 | 0.0 | 0.0 | 0.00 | 0.18 | 0.18 | 68 | 1008.4 |
| 20260509001912 | 8 | 261 | 0.0 | 0.0 | 0.00 | 0.18 | 0.18 | 65 | 1008.3 |
| 20260509001409 | 8 | 265 | 0.0 | 0.0 | 0.00 | 0.18 | 0.18 | 66 | 1008.4 |
| 20260509000906 | 9 | 265 | 0.0 | 0.0 | 0.00 | 0.18 | 0.18 | 61 | 1008.4 |
| 20260509000404 | 9 | 265 | 0.0 | 0.0 | 0.00 | 0.18 | 0.18 | 59 | 1008.3 |
| 20260508235859 | 10 | 265 | 0.0 | 0.0 | 0.00 | 0.18 | 0.18 | 59 | 1008.3 |
| 20260508235357 | 10 | 265 | 0.0 | 0.0 | 0.00 | 0.18 | 0.18 | 58 | 1008.2 |
| 20260508234854 | 11 | 261 | 0.0 | 0.0 | 0.00 | 0.18 | 0.18 | 58 | 1008.4 |
| 20260508234350 | 11 | 260 | 0.0 | 0.0 | 0.00 | 0.18 | 0.18 | 56 | 1008.1 |
| 20260508233849 | 11 | 263 | 0.0 | 0.0 | 0.00 | 0.18 | 0.18 | 51 | 1008.3 |
| 20260508233348 | 12 | 260 | 0.0 | 0.0 | 0.00 | 0.18 | 0.18 | 47 | 1008.2 |
| 20260508232844 | 12 | 258 | 0.0 | 0.0 | 0.00 | 0.18 | 0.18 | 47 | 1007.9 |
| 20260508232340 | 12 | 286 | 0.0 | 1.6 | 0.00 | 0.18 | 0.18 | 46 | 1008.1 |
| 20260508231839 | 12 | 263 | 0.0 | 0.0 | 0.00 | 0.18 | 0.18 | 47 | 1007.9 |
| 20260508231335 | 12 | 320 | 1.6 | 3.2 | 0.00 | 0.18 | 0.18 | 46 | 1008.0 |
| 20260508230832 | 12 | 329 | 3.2 | 4.8 | 0.00 | 0.18 | 0.18 | 46 | 1007.9 |
| 20260508230328 | 12 | 298 | 1.6 | 1.6 | 0.00 | 0.18 | 0.18 | 49 | 1008.2 |
| 20260508225826 | 13 | 285 | 0.0 | 0.0 | 0.00 | 0.18 | 0.18 | 46 | 1007.9 |
| 20260508225322 | 13 | 246 | 1.6 | 1.6 | 0.00 | 0.18 | 0.18 | 46 | 1008.0 |
| 20260508224821 | 13 | 263 | 0.0 | 0.0 | 0.00 | 0.18 | 0.18 | 43 | 1008.1 |
| 20260508224318 | 13 | 270 | 1.6 | 1.6 | 0.00 | 0.18 | 0.18 | 43 | 1008.1 |
| 20260508223815 | 13 | 274 | 1.6 | 1.6 | 0.00 | 0.18 | 0.18 | 42 | 1008.1 |
| 20260508223312 | 13 | 318 | 1.6 | 1.6 | 0.00 | 0.18 | 0.18 | 43 | 1008.0 |
| 20260508222810 | 13 | 289 | 0.0 | 0.0 | 0.00 | 0.18 | 0.18 | 45 | 1008.0 |
| 20260508222307 | 13 | 277 | 3.2 | 3.2 | 0.00 | 0.18 | 0.18 | 47 | 1008.0 |
| 20260508221803 | 13 | 292 | 3.2 | 3.2 | 0.00 | 0.18 | 0.18 | 46 | 1007.9 |
| 20260508221259 | 13 | 282 | 1.6 | 3.2 | 0.00 | 0.18 | 0.18 | 48 | 1008.1 |
| 20260508220755 | 13 | 285 | 4.8 | 4.8 | 0.00 | 0.18 | 0.18 | 48 | 1008.1 |
| 20260508220252 | 13 | 303 | 1.6 | 3.2 | 0.00 | 0.18 | 0.18 | 43 | 1008.1 |
| 20260508215748 | 13 | 287 | 3.2 | 4.8 | 0.00 | 0.18 | 0.18 | 43 | 1007.9 |
| 20260508215245 | 13 | 254 | 0.0 | 0.0 | 0.00 | 0.18 | 0.18 | 44 | 1008.1 |
| 20260508214743 | 13 | 216 | 3.2 | 3.2 | 0.00 | 0.18 | 0.18 | 43 | 1008.1 |
| 20260508214239 | 13 | 289 | 4.8 | 8.0 | 0.00 | 0.18 | 0.18 | 44 | 1008.0 |
| 20260508213736 | 13 | 194 | 1.6 | 3.2 | 0.00 | 0.18 | 0.18 | 46 | 1008.1 |
| 20260508213233 | 13 | 291 | 1.6 | 1.6 | 0.00 | 0.18 | 0.18 | 44 | 1008.3 |
| 20260508212729 | 13 | 282 | 3.2 | 3.2 | 0.00 | 0.18 | 0.18 | 42 | 1008.2 |
| 20260508212226 | 13 | 275 | 1.6 | 3.2 | 0.00 | 0.18 | 0.18 | 45 | 1008.2 |
| 20260508211721 | 13 | 249 | 1.6 | 1.6 | 0.00 | 0.18 | 0.18 | 42 | 1008.0 |
| 20260508211217 | 13 | 236 | 1.6 | 1.6 | 0.00 | 0.18 | 0.18 | 44 | 1008.3 |
| 20260508210715 | 13 | 224 | 1.6 | 1.6 | 0.00 | 0.18 | 0.18 | 42 | 1008.2 |
| 20260508210212 | 13 | 195 | 1.6 | 3.2 | 0.00 | 0.18 | 0.18 | 45 | 1008.3 |
| 20260508205708 | 13 | 358 | 3.2 | 4.8 | 0.00 | 0.18 | 0.18 | 42 | 1008.3 |
| 20260508205205 | 13 | 195 | 1.6 | 3.2 | 0.00 | 0.18 | 0.18 | 43 | 1008.5 |
| 20260508204701 | 13 | 237 | 3.2 | 3.2 | 0.00 | 0.18 | 0.18 | 43 | 1008.5 |
| 20260508204157 | 13 | 258 | 0.0 | 1.6 | 0.00 | 0.18 | 0.18 | 44 | 1008.5 |
| 20260508203654 | 12 | 215 | 3.2 | 3.2 | 0.00 | 0.18 | 0.18 | 44 | 1008.6 |
| 20260508203150 | 13 | 324 | 6.4 | 9.7 | 0.00 | 0.18 | 0.18 | 45 | 1008.5 |
| 20260508202646 | 14 | 280 | 3.2 | 4.8 | 0.00 | 0.18 | 0.18 | 47 | 1008.7 |
| 20260508202144 | 14 | 297 | 1.6 | 1.6 | 0.00 | 0.18 | 0.18 | 45 | 1008.8 |
| 20260508201640 | 14 | 299 | 3.2 | 3.2 | 0.00 | 0.18 | 0.18 | 44 | 1008.8 |
| 20260508201137 | 13 | 291 | 4.8 | 4.8 | 0.00 | 0.18 | 0.18 | 45 | 1008.8 |
| 20260508200634 | 13 | 249 | 1.6 | 1.6 | 0.00 | 0.18 | 0.18 | 44 | 1009.0 |
| 20260508200130 | 13 | 304 | 3.2 | 3.2 | 0.00 | 0.18 | 0.18 | 45 | 1008.9 |
| 20260508195626 | 13 | 340 | 4.8 | 4.8 | 0.00 | 0.18 | 0.18 | 46 | 1008.7 |
| 20260508195123 | 13 | 297 | 3.2 | 3.2 | 0.00 | 0.18 | 0.18 | 44 | 1008.9 |
| 20260508194620 | 13 | 335 | 4.8 | 4.8 | 0.00 | 0.18 | 0.18 | 43 | 1008.9 |
| 20260508194117 | 13 | 275 | 3.2 | 3.2 | 0.00 | 0.18 | 0.18 | 44 | 1009.0 |
| 20260508193614 | 13 | 278 | 1.6 | 1.6 | 0.00 | 0.18 | 0.18 | 41 | 1009.3 |
| 20260508193110 | 13 | 254 | 1.6 | 1.6 | 0.00 | 0.18 | 0.18 | 45 | 1009.2 |
| 20260508192607 | 13 | 282 | 3.2 | 4.8 | 0.00 | 0.18 | 0.18 | 38 | 1009.3 |
| 20260508192104 | 13 | 283 | 1.6 | 1.6 | 0.00 | 0.18 | 0.18 | 48 | 1009.1 |
| 20260508191601 | 13 | 15 | 1.6 | 1.6 | 0.00 | 0.18 | 0.18 | 46 | 1009.4 |
| 20260508191058 | 13 | 299 | 3.2 | 3.2 | 0.00 | 0.18 | 0.18 | 49 | 1009.4 |
| 20260508190555 | 13 | 351 | 3.2 | 3.2 | 0.00 | 0.18 | 0.18 | 47 | 1009.4 |
| 20260508190051 | 13 | 255 | 1.6 | 3.2 | 0.00 | 0.18 | 0.18 | 50 | 1009.3 |
| 20260508185548 | 13 | 187 | 8.0 | 12.9 | 0.00 | 0.18 | 0.18 | 46 | 1009.4 |
| 20260508185046 | 13 | 198 | 3.2 | 4.8 | 0.00 | 0.18 | 0.18 | 47 | 1009.4 |
| 20260508184543 | 13 | 290 | 3.2 | 4.8 | 0.00 | 0.18 | 0.18 | 52 | 1009.5 |
| 20260508184040 | 13 | 266 | 3.2 | 3.2 | 0.00 | 0.18 | 0.18 | 50 | 1009.4 |
| 20260508183536 | 12 | 329 | 4.8 | 8.0 | 0.00 | 0.18 | 0.18 | 51 | 1009.5 |
| 20260508183032 | 12 | 244 | 1.6 | 1.6 | 0.00 | 0.18 | 0.18 | 52 | 1009.6 |
| 20260508182529 | 13 | 162 | 6.4 | 9.7 | 0.00 | 0.18 | 0.18 | 50 | 1009.6 |
| 20260508182025 | 13 | 350 | 1.6 | 1.6 | 0.00 | 0.18 | 0.18 | 51 | 1009.5 |
| 20260508181521 | 12 | 309 | 3.2 | 4.8 | 0.00 | 0.18 | 0.18 | 54 | 1009.5 |
| 20260508181019 | 12 | 176 | 4.8 | 8.0 | 0.00 | 0.18 | 0.18 | 51 | 1009.7 |
| 20260508180515 | 12 | 323 | 4.8 | 9.7 | 0.00 | 0.18 | 0.18 | 58 | 1009.5 |
| 20260508180011 | 11 | 250 | 3.2 | 4.8 | 0.00 | 0.18 | 0.18 | 59 | 1009.7 |
| 20260508175508 | 11 | 311 | 4.8 | 4.8 | 0.00 | 0.18 | 0.18 | 59 | 1009.6 |
| 20260508175006 | 11 | 264 | 4.8 | 4.8 | 0.00 | 0.18 | 0.18 | 58 | 1009.8 |
| 20260508174503 | 11 | 163 | 8.0 | 11.3 | 0.00 | 0.18 | 0.18 | 64 | 1009.9 |
| 20260508174000 | 11 | 242 | 4.8 | 8.0 | 0.00 | 0.18 | 0.18 | 65 | 1009.8 |
| 20260508173457 | 11 | 250 | 0.0 | 1.6 | 0.00 | 0.18 | 0.18 | 64 | 1009.9 |
| 20260508172953 | 12 | 174 | 3.2 | 3.2 | 0.00 | 0.18 | 0.18 | 60 | 1010.0 |
| 20260508172450 | 11 | 286 | 3.2 | 3.2 | 0.00 | 0.18 | 0.18 | 67 | 1010.1 |
| 20260508171946 | 11 | 276 | 1.6 | 1.6 | 0.00 | 0.18 | 0.18 | 66 | 1010.2 |
| 20260508171443 | 11 | 245 | 1.6 | 1.6 | 0.00 | 0.18 | 0.18 | 64 | 1010.0 |
| 20260508170939 | 11 | 206 | 3.2 | 4.8 | 0.00 | 0.18 | 0.18 | 69 | 1010.1 |
| 20260508170437 | 10 | 261 | 4.8 | 8.0 | 0.00 | 0.18 | 0.18 | 69 | 1010.3 |
| 20260508165933 | 10 | 261 | 0.0 | 1.6 | 0.00 | 0.18 | 0.18 | 68 | 1010.2 |
| 20260508165432 | 10 | 210 | 3.2 | 3.2 | 0.00 | 0.18 | 0.18 | 69 | 1010.3 |
| 20260508164927 | 10 | 280 | 1.6 | 3.2 | 0.00 | 0.18 | 0.18 | 63 | 1010.1 |
| 20260508164424 | 10 | 259 | 1.6 | 3.2 | 0.00 | 0.18 | 0.18 | 67 | 1010.4 |
| 20260508163922 | 10 | 185 | 4.8 | 8.0 | 0.00 | 0.18 | 0.18 | 66 | 1010.6 |
| 20260508163419 | 10 | 269 | 1.6 | 1.6 | 0.00 | 0.18 | 0.18 | 74 | 1010.3 |
| 20260508162914 | 10 | 270 | 3.2 | 3.2 | 0.00 | 0.18 | 0.18 | 69 | 1010.4 |
| 20260508162412 | 10 | 206 | 8.0 | 9.7 | 0.00 | 0.18 | 0.18 | 70 | 1010.7 |
| 20260508161909 | 10 | 185 | 1.6 | 1.6 | 0.00 | 0.18 | 0.18 | 69 | 1010.6 |
| 20260508161406 | 9 | 268 | 1.6 | 3.2 | 0.00 | 0.18 | 0.18 | 72 | 1010.7 |
| 20260508160903 | 10 | 279 | 4.8 | 4.8 | 0.00 | 0.18 | 0.18 | 75 | 1010.6 |
| 20260508160402 | 9 | 206 | 6.4 | 8.0 | 0.00 | 0.18 | 0.18 | 71 | 1010.8 |
| 20260508155858 | 10 | 224 | 6.4 | 8.0 | 0.00 | 0.18 | 0.18 | 74 | 1011.0 |
| 20260508155355 | 10 | 267 | 1.6 | 3.2 | 0.00 | 0.18 | 0.18 | 74 | 1010.9 |
| 20260508154852 | 9 | 280 | 4.8 | 4.8 | 0.00 | 0.18 | 0.18 | 75 | 1010.8 |
| 20260508154350 | 9 | 230 | 3.2 | 3.2 | 0.00 | 0.18 | 0.18 | 78 | 1010.8 |
| 20260508153846 | 8 | 271 | 1.6 | 3.2 | 0.00 | 0.18 | 0.18 | 80 | 1010.7 |
| 20260508153343 | 7 | 267 | 3.2 | 4.8 | 0.00 | 0.18 | 0.18 | 81 | 1010.6 |
| 20260508152839 | 7 | 251 | 3.2 | 3.2 | 0.00 | 0.18 | 0.18 | 81 | 1010.6 |
| 20260508152336 | 8 | 201 | 6.4 | 8.0 | 0.00 | 0.18 | 0.18 | 81 | 1010.8 |
| 20260508151832 | 8 | 262 | 1.6 | 3.2 | 0.00 | 0.18 | 0.18 | 80 | 1010.7 |
| 20260508151329 | 8 | 231 | 4.8 | 8.0 | 0.00 | 0.18 | 0.18 | 80 | 1010.6 |
| 20260508150825 | 8 | 234 | 3.2 | 3.2 | 0.00 | 0.18 | 0.18 | 83 | 1010.6 |
| 20260508150322 | 7 | 256 | 1.6 | 3.2 | 0.00 | 0.18 | 0.18 | 84 | 1010.5 |
| 20260508145819 | 7 | 190 | 6.4 | 9.7 | 0.00 | 0.18 | 0.18 | 83 | 1010.5 |
| 20260508145315 | 7 | 258 | 1.6 | 1.6 | 0.00 | 0.18 | 0.18 | 85 | 1010.8 |
| 20260508144812 | 7 | 319 | 0.0 | 1.6 | 0.00 | 0.18 | 0.18 | 85 | 1010.8 |
| 20260508144310 | 7 | 258 | 1.6 | 1.6 | 0.00 | 0.18 | 0.18 | 88 | 1010.7 |
| 20260508143807 | 6 | 325 | 0.0 | 0.0 | 0.00 | 0.18 | 0.18 | 91 | 1011.0 |
| 20260508143304 | 6 | 221 | 1.6 | 3.2 | 0.00 | 0.18 | 0.18 | 91 | 1010.6 |
| 20260508142801 | 6 | 281 | 0.0 | 0.0 | 0.00 | 0.18 | 0.18 | 92 | 1010.9 |
| 20260508142257 | 6 | 268 | 1.6 | 1.6 | 0.00 | 0.18 | 0.18 | 93 | 1010.8 |
| 20260508141754 | 5 | 227 | 3.2 | 4.8 | 0.00 | 0.18 | 0.18 | 93 | 1010.9 |
| 20260508141251 | 5 | 210 | 1.6 | 3.2 | 0.00 | 0.18 | 0.18 | 93 | 1010.9 |
| 20260508140749 | 5 | 280 | 0.0 | 1.6 | 0.00 | 0.18 | 0.18 | 94 | 1010.7 |
| 20260508140245 | 5 | 249 | 3.2 | 4.8 | 0.00 | 0.18 | 0.18 | 94 | 1010.8 |
| 20260508135741 | 5 | 278 | 0.0 | 1.6 | 0.00 | 0.18 | 0.18 | 93 | 1010.6 |
| 20260508135237 | 5 | 229 | 3.2 | 3.2 | 0.00 | 0.18 | 0.18 | 94 | 1010.6 |
| 20260508134733 | 5 | 259 | 0.0 | 0.0 | 0.00 | 0.18 | 0.18 | 94 | 1010.8 |
| 20260508134230 | 5 | 280 | 0.0 | 1.6 | 0.00 | 0.18 | 0.18 | 94 | 1010.7 |
| 20260508133727 | 5 | 207 | 4.8 | 4.8 | 0.00 | 0.18 | 0.18 | 93 | 1010.6 |
| 20260508133225 | 5 | 266 | 0.0 | 1.6 | 0.00 | 0.18 | 0.18 | 95 | 1010.8 |
| 20260508132722 | 5 | 267 | 0.0 | 1.6 | 0.13 | 0.18 | 0.18 | 95 | 1010.8 |
| 20260508132220 | 5 | 264 | 0.0 | 0.0 | 0.13 | 0.18 | 0.18 | 95 | 1011.0 |
| 20260508131715 | 5 | 258 | 1.6 | 1.6 | 0.00 | 0.15 | 0.15 | 95 | 1010.7 |
| 20260508131212 | 5 | 255 | 1.6 | 1.6 | 0.00 | 0.15 | 0.15 | 95 | 1010.8 |
| 20260508130708 | 5 | 305 | 1.6 | 1.6 | 0.00 | 0.15 | 0.15 | 95 | 1010.9 |
| 20260508130206 | 5 | 270 | 0.0 | 0.0 | 0.18 | 0.15 | 0.15 | 94 | 1010.7 |
| 20260508125701 | 5 | 263 | 0.0 | 1.6 | 0.30 | 0.15 | 0.15 | 93 | 1010.9 |
| 20260508125158 | 4 | 159 | 1.6 | 3.2 | 0.13 | 0.13 | 0.13 | 93 | 1010.6 |
| 20260508124656 | 5 | 278 | 6.4 | 8.0 | 0.18 | 0.10 | 0.10 | 92 | 1010.9 |
| 20260508124153 | 5 | 271 | 1.6 | 1.6 | 0.18 | 0.10 | 0.10 | 92 | 1010.8 |
| 20260508123651 | 5 | 199 | 0.0 | 1.6 | 0.18 | 0.08 | 0.08 | 91 | 1010.8 |
| 20260508123149 | 5 | 260 | 0.0 | 0.0 | 0.30 | 0.08 | 0.08 | 91 | 1010.7 |
| 20260508122644 | 5 | 265 | 0.0 | 0.0 | 0.13 | 0.05 | 0.05 | 90 | 1010.7 |
| 20260508122141 | 5 | 267 | 0.0 | 0.0 | 0.00 | 0.03 | 0.03 | 88 | 1010.4 |
| 20260508121639 | 5 | 258 | 0.0 | 0.0 | 0.00 | 0.03 | 0.03 | 87 | 1010.3 |
| 20260508121137 | 5 | 305 | 1.6 | 1.6 | 0.00 | 0.03 | 0.03 | 85 | 1010.0 |
| 20260508120634 | 5 | 220 | 4.8 | 4.8 | 0.00 | 0.03 | 0.03 | 85 | 1010.0 |
| 20260508120133 | 5 | 300 | 0.0 | 1.6 | 0.00 | 0.03 | 0.03 | 88 | 1010.1 |
| 20260508115630 | 5 | 224 | 4.8 | 4.8 | 0.18 | 0.03 | 0.03 | 87 | 1009.9 |
| 20260508115126 | 5 | 215 | 3.2 | 3.2 | 0.18 | 0.03 | 0.03 | 90 | 1009.9 |
| 20260508114624 | 5 | 258 | 0.0 | 1.6 | 0.00 | 0.00 | 0.00 | 90 | 1009.6 |
| 20260508114119 | 5 | 262 | 1.6 | 1.6 | 0.00 | 0.00 | 0.00 | 91 | 1009.7 |
| 20260508113617 | 5 | 148 | 4.8 | 8.0 | 0.00 | 0.00 | 0.00 | 98 | 1009.6 |
| 20260508113115 | 5 | 236 | 1.6 | 1.6 | 0.00 | 0.00 | 0.00 | 99 | 1009.5 |
| 20260508112611 | 4 | 245 | 1.6 | 1.6 | 0.00 | 0.00 | 0.00 | 99 | 1009.3 |
| 20260508112108 | 4 | 224 | 1.6 | 1.6 | 0.00 | 0.00 | 0.00 | 99 | 1009.6 |
| 20260508111605 | 4 | 264 | 0.0 | 0.0 | 0.00 | 0.00 | 0.00 | 99 | 1009.3 |
| 20260508111102 | 4 | 264 | 0.0 | 0.0 | 0.00 | 0.00 | 0.00 | 99 | 1009.3 |
| 20260508110600 | 3 | 264 | 0.0 | 0.0 | 0.00 | 0.00 | 0.00 | 99 | 1009.2 |
| 20260508110055 | 3 | 266 | 0.0 | 0.0 | 0.00 | 0.00 | 0.00 | 99 | 1009.0 |
| 20260508105550 | 3 | 266 | 0.0 | 0.0 | 0.00 | 0.00 | 0.00 | 99 | 1009.0 |
| 20260508105048 | 3 | 264 | 0.0 | 0.0 | 0.00 | 0.00 | 0.00 | 99 | 1009.0 |
| 20260508104546 | 3 | 274 | 0.0 | 0.0 | 0.00 | 0.00 | 0.00 | 99 | 1009.0 |
| 20260508104042 | 3 | 261 | 0.0 | 0.0 | 0.00 | 0.00 | 0.00 | 99 | 1008.9 |
| 20260508103539 | 3 | 260 | 0.0 | 0.0 | 0.00 | 0.00 | 0.00 | 99 | 1009.0 |
| 20260508103037 | 3 | 263 | 0.0 | 0.0 | 0.00 | 0.00 | 0.00 | 99 | 1008.7 |
| 20260508102534 | 3 | 281 | 0.0 | 0.0 | 0.00 | 0.00 | 0.00 | 99 | 1008.8 |
| 20260508102032 | 3 | 266 | 0.0 | 0.0 | 0.00 | 0.00 | 0.00 | 99 | 1009.0 |
| 20260508101529 | 3 | 272 | 0.0 | 0.0 | 0.00 | 0.00 | 0.00 | 99 | 1008.8 |
| 20260508101026 | 3 | 261 | 0.0 | 0.0 | 0.00 | 0.00 | 0.00 | 99 | 1008.8 |
| 20260508100524 | 3 | 258 | 0.0 | 0.0 | 0.00 | 0.00 | 0.00 | 99 | 1009.0 |
| 20260508100021 | 3 | 259 | 0.0 | 0.0 | 0.00 | 0.00 | 0.00 | 99 | 1009.2 |
| 20260508095518 | 3 | 261 | 0.0 | 0.0 | 0.00 | 0.00 | 0.00 | 99 | 1009.2 |
| 20260508095015 | 3 | 260 | 0.0 | 0.0 | 0.00 | 0.00 | 0.00 | 99 | 1009.2 |
| 20260508094512 | 3 | 261 | 0.0 | 0.0 | 0.00 | 0.00 | 0.00 | 99 | 1009.4 |
| 20260508094009 | 2 | 270 | 0.0 | 0.0 | 0.00 | 0.00 | 0.00 | 99 | 1009.2 |
| 20260508093506 | 2 | 267 | 0.0 | 0.0 | 0.00 | 0.00 | 0.00 | 99 | 1009.5 |
| 20260508093004 | 2 | 264 | 0.0 | 0.0 | 0.00 | 0.00 | 0.00 | 99 | 1009.5 |
| 20260508092501 | 2 | 264 | 0.0 | 0.0 | 0.00 | 0.00 | 0.00 | 99 | 1009.5 |
| 20260508092000 | 2 | 260 | 0.0 | 0.0 | 0.00 | 0.00 | 0.00 | 99 | 1009.2 |